Time,TemperatureF,DewpointF,PressureIn,WindDirection,WindDirectionDegrees,WindSpeedMPH,WindSpeedGustMPH,Humidity,HourlyPrecipIn,Conditions,Clouds,dailyrainin,SoftwareType,DateUTC
2013-03-03 00:00:00,31.6,24.6,30.07,West,266,2.0,2.0,75,0.00,,,0.00,Wunderground v.1.15,2013-03-03 05:00:00,
2013-03-03 00:04:00,31.5,24.5,30.07,NW,304,1.0,2.0,75,0.00,,,0.00,Wunderground v.1.15,2013-03-03 05:04:00,
2013-03-03 00:09:00,31.4,24.4,30.07,North,11,1.0,1.0,75,0.00,,,0.00,Wunderground v.1.15,2013-03-03 05:09:00,
2013-03-03 00:19:00,31.4,24.4,30.08,West,274,2.0,2.0,75,0.00,,,0.00,Wunderground v.1.15,2013-03-03 05:19:00,
2013-03-03 00:25:00,31.3,24.3,30.08,West,273,1.0,2.0,75,0.00,,,0.00,Wunderground v.1.15,2013-03-03 05:25:00,
2013-03-03 00:34:00,31.2,24.5,30.08,West,268,1.0,1.0,76,0.00,,,0.00,Wunderground v.1.15,2013-03-03 05:34:00,
2013-03-03 00:39:00,31.2,24.5,30.08,West,267,2.0,2.0,76,0.00,,,0.00,Wunderground v.1.15,2013-03-03 05:39:00,
2013-03-03 00:44:00,31.2,24.8,30.08,West,279,1.0,2.0,77,0.00,,,0.00,Wunderground v.1.15,2013-03-03 05:44:00,
2013-03-03 00:54:00,31.2,24.8,30.08,West,279,1.0,1.0,77,0.00,,,0.00,Wunderground v.1.15,2013-03-03 05:54:00,
2013-03-03 01:00:00,31.2,24.8,30.08,WSW,258,1.0,1.0,77,0.00,,,0.00,Wunderground v.1.15,2013-03-03 06:00:00,
2013-03-03 01:05:00,31.2,25.1,30.08,WSW,258,1.0,1.0,78,0.00,,,0.00,Wunderground v.1.15,2013-03-03 06:05:00,
2013-03-03 01:10:00,31.3,25.2,30.07,WSW,256,1.0,3.0,78,0.00,,,0.00,Wunderground v.1.15,2013-03-03 06:10:00,
2013-03-03 01:15:00,31.3,25.2,30.08,WSW,237,1.0,3.0,78,0.00,,,0.00,Wunderground v.1.15,2013-03-03 06:15:00,
2013-03-03 01:20:00,31.4,25.3,30.07,West,267,2.0,4.0,78,0.00,,,0.00,Wunderground v.1.15,2013-03-03 06:20:00,
2013-03-03 01:25:00,31.4,25.3,30.08,West,264,1.0,4.0,78,0.00,,,0.00,Wunderground v.1.15,2013-03-03 06:25:00,
2013-03-03 01:30:00,31.4,25.3,30.08,West,266,1.0,1.0,78,0.00,,,0.00,Wunderground v.1.15,2013-03-03 06:30:00,
2013-03-03 01:40:00,31.4,25.3,30.08,WSW,250,0.0,4.0,78,0.00,,,0.00,Wunderground v.1.15,2013-03-03 06:40:00,
2013-03-03 01:45:00,31.5,25.4,30.08,SW,229,2.0,4.0,78,0.00,,,0.00,Wunderground v.1.15,2013-03-03 06:45:00,
2013-03-03 01:50:00,31.5,25.1,30.08,WNW,282,3.0,4.0,77,0.00,,,0.00,Wunderground v.1.15,2013-03-03 06:50:00,
2013-03-03 02:00:00,31.5,25.4,30.07,WNW,284,2.0,2.0,78,0.00,,,0.00,Wunderground v.1.15,2013-03-03 07:00:00,
2013-03-03 02:10:00,31.6,25.2,30.07,SE,133,1.0,1.0,77,0.00,,,0.00,Wunderground v.1.15,2013-03-03 07:10:00,
2013-03-03 02:15:00,31.6,25.2,30.08,North,352,1.0,1.0,77,0.00,,,0.00,Wunderground v.1.15,2013-03-03 07:15:00,
2013-03-03 02:25:00,31.6,25.2,30.07,South,177,2.0,2.0,77,0.00,,,0.00,Wunderground v.1.15,2013-03-03 07:25:00,
2013-03-03 02:35:00,31.6,25.2,30.07,ENE,65,1.0,1.0,77,0.00,,,0.00,Wunderground v.1.15,2013-03-03 07:35:00,
2013-03-03 02:40:00,31.6,24.9,30.07,North,360,2.0,2.0,76,0.00,,,0.00,Wunderground v.1.15,2013-03-03 07:40:00,
2013-03-03 02:45:00,31.6,24.9,30.07,ENE,65,1.0,2.0,76,0.00,,,0.00,Wunderground v.1.15,2013-03-03 07:45:00,
2013-03-03 02:50:00,31.6,24.9,30.07,NNW,327,1.0,2.0,76,0.00,,,0.00,Wunderground v.1.15,2013-03-03 07:50:00,
2013-03-03 02:55:00,31.6,24.9,30.07,WSW,254,1.0,2.0,76,0.00,,,0.00,Wunderground v.1.15,2013-03-03 07:55:00,
2013-03-03 03:00:00,31.5,24.8,30.07,West,279,1.0,1.0,76,0.00,,,0.00,Wunderground v.1.15,2013-03-03 08:00:00,
2013-03-03 03:10:00,31.5,25.1,30.07,NE,40,1.0,1.0,77,0.00,,,0.00,Wunderground v.1.15,2013-03-03 08:10:00,
2013-03-03 03:20:00,31.4,25.0,30.07,ENE,77,1.0,1.0,77,0.00,,,0.00,Wunderground v.1.15,2013-03-03 08:20:00,
2013-03-03 03:25:00,31.4,25.3,30.07,WNW,302,0.0,1.0,78,0.00,,,0.00,Wunderground v.1.15,2013-03-03 08:25:00,
2013-03-03 03:30:00,31.4,25.3,30.07,NNE,23,1.0,1.0,78,0.00,,,0.00,Wunderground v.1.15,2013-03-03 08:30:00,
2013-03-03 03:40:00,31.3,25.2,30.06,NNW,337,1.0,1.0,78,0.00,,,0.00,Wunderground v.1.15,2013-03-03 08:40:00,
2013-03-03 03:45:00,31.3,25.5,30.06,NW,313,1.0,1.0,79,0.00,,,0.00,Wunderground v.1.15,2013-03-03 08:45:00,
2013-03-03 03:50:00,31.3,25.5,30.06,WSW,239,1.0,2.0,79,0.00,,,0.00,Wunderground v.1.15,2013-03-03 08:50:00,
2013-03-03 03:55:00,31.2,25.4,30.06,WSW,257,1.0,2.0,79,0.00,,,0.00,Wunderground v.1.15,2013-03-03 08:55:00,
2013-03-03 04:05:00,31.2,25.4,30.06,NNW,330,1.0,1.0,79,0.00,,,0.00,Wunderground v.1.15,2013-03-03 09:05:00,
2013-03-03 04:10:00,31.2,25.4,30.06,East,83,1.0,1.0,79,0.00,,,0.00,Wunderground v.1.15,2013-03-03 09:10:00,
2013-03-03 04:15:00,31.1,25.3,30.06,NE,41,1.0,1.0,79,0.00,,,0.00,Wunderground v.1.15,2013-03-03 09:15:00,
2013-03-03 04:20:00,31.1,25.3,30.06,NNE,31,1.0,1.0,79,0.00,,,0.00,Wunderground v.1.15,2013-03-03 09:20:00,
2013-03-03 04:25:00,31.1,25.0,30.06,WSW,255,2.0,2.0,78,0.00,,,0.00,Wunderground v.1.15,2013-03-03 09:25:00,
2013-03-03 04:30:00,31.0,24.9,30.06,ENE,63,2.0,2.0,78,0.00,,,0.00,Wunderground v.1.15,2013-03-03 09:30:00,
2013-03-03 04:35:00,31.0,24.9,30.06,NE,45,2.0,4.0,78,0.00,,,0.00,Wunderground v.1.15,2013-03-03 09:35:00,
2013-03-03 04:40:00,31.0,24.9,30.06,East,85,2.0,2.0,78,0.00,,,0.00,Wunderground v.1.15,2013-03-03 09:40:00,
2013-03-03 04:50:00,30.9,24.8,30.06,NE,56,2.0,2.0,78,0.00,,,0.00,Wunderground v.1.15,2013-03-03 09:50:00,
2013-03-03 04:55:00,30.9,24.8,30.06,NE,42,2.0,2.0,78,0.00,,,0.00,Wunderground v.1.15,2013-03-03 09:55:00,
2013-03-03 05:00:00,30.9,24.8,30.06,West,279,1.0,2.0,78,0.00,,,0.00,Wunderground v.1.15,2013-03-03 10:00:00,
2013-03-03 05:10:00,30.9,24.8,30.06,WNW,286,2.0,2.0,78,0.00,,,0.00,Wunderground v.1.15,2013-03-03 10:10:00,
2013-03-03 05:15:00,30.8,24.7,30.06,WSW,256,1.0,2.0,78,0.00,,,0.00,Wunderground v.1.15,2013-03-03 10:15:00,
2013-03-03 05:20:00,30.8,24.7,30.06,West,269,1.0,2.0,78,0.00,,,0.00,Wunderground v.1.15,2013-03-03 10:20:00,
2013-03-03 05:25:00,30.8,24.7,30.06,NNE,19,1.0,2.0,78,0.00,,,0.00,Wunderground v.1.15,2013-03-03 10:25:00,
2013-03-03 05:35:00,30.7,25.0,30.07,ENE,71,1.0,1.0,79,0.00,,,0.00,Wunderground v.1.15,2013-03-03 10:35:00,
2013-03-03 05:40:00,30.7,24.7,30.07,ENE,75,1.0,1.0,78,0.00,,,0.00,Wunderground v.1.15,2013-03-03 10:40:00,
2013-03-03 05:45:00,30.7,25.0,30.07,NNW,332,1.0,4.0,79,0.00,,,0.00,Wunderground v.1.15,2013-03-03 10:45:00,
2013-03-03 05:50:00,30.7,24.7,30.06,ENE,76,1.0,2.0,78,0.00,,,0.00,Wunderground v.1.15,2013-03-03 10:50:00,
2013-03-03 06:00:00,30.5,24.5,30.07,NNE,22,2.0,2.0,78,0.00,,,0.00,Wunderground v.1.15,2013-03-03 11:00:00,
2013-03-03 06:10:00,30.4,24.7,30.07,North,352,1.0,2.0,79,0.00,,,0.00,Wunderground v.1.15,2013-03-03 11:10:00,
2013-03-03 06:15:00,30.3,24.0,30.07,NNE,26,2.0,5.0,77,0.00,,,0.00,Wunderground v.1.15,2013-03-03 11:15:00,
2013-03-03 06:20:00,30.3,24.0,30.07,NNE,16,2.0,2.0,77,0.00,,,0.00,Wunderground v.1.15,2013-03-03 11:20:00,
2013-03-03 06:25:00,30.2,23.9,30.07,NNE,12,3.0,4.0,77,0.00,,,0.00,Wunderground v.1.15,2013-03-03 11:25:00,
2013-03-03 06:35:00,30.2,23.9,30.07,NW,322,2.0,5.0,77,0.00,,,0.00,Wunderground v.1.15,2013-03-03 11:35:00,
2013-03-03 06:40:00,30.2,23.9,30.07,NW,304,1.0,3.0,77,0.00,,,0.00,Wunderground v.1.15,2013-03-03 11:40:00,
2013-03-03 06:45:00,30.1,23.8,30.07,NNE,25,1.0,3.0,77,0.00,,,0.00,Wunderground v.1.15,2013-03-03 11:45:00,
2013-03-03 06:50:00,30.1,23.4,30.07,NNW,342,1.0,1.0,76,0.00,,,0.00,Wunderground v.1.15,2013-03-03 11:50:00,
2013-03-03 07:00:00,30.1,23.8,30.08,NNE,21,1.0,4.0,77,0.00,,,0.00,Wunderground v.1.15,2013-03-03 12:00:00,
2013-03-03 07:10:00,29.9,24.2,30.08,WSW,249,2.0,2.0,79,0.00,,,0.00,Wunderground v.1.15,2013-03-03 12:10:00,
2013-03-03 07:15:00,29.8,24.1,30.08,WNW,293,1.0,2.0,79,0.00,,,0.00,Wunderground v.1.15,2013-03-03 12:15:00,
2013-03-03 07:20:00,29.8,24.1,30.08,NW,309,0.0,1.0,79,0.00,,,0.00,Wunderground v.1.15,2013-03-03 12:20:00,
2013-03-03 07:25:00,29.7,24.0,30.08,West,264,1.0,1.0,79,0.00,,,0.00,Wunderground v.1.15,2013-03-03 12:25:00,
2013-03-03 07:35:00,29.6,23.9,30.09,WSW,246,1.0,1.0,79,0.00,,,0.00,Wunderground v.1.15,2013-03-03 12:35:00,
2013-03-03 07:40:00,29.6,24.2,30.09,SW,225,1.0,2.0,80,0.00,,,0.00,Wunderground v.1.15,2013-03-03 12:40:00,
2013-03-03 07:45:00,29.6,23.9,30.09,West,273,1.0,2.0,79,0.00,,,0.00,Wunderground v.1.15,2013-03-03 12:45:00,
2013-03-03 07:50:00,29.6,23.6,30.09,West,276,1.0,1.0,78,0.00,,,0.00,Wunderground v.1.15,2013-03-03 12:50:00,
2013-03-03 07:55:00,29.7,23.7,30.09,West,263,1.0,1.0,78,0.00,,,0.00,Wunderground v.1.15,2013-03-03 12:55:00,
2013-03-03 08:00:00,29.7,24.0,30.09,West,272,1.0,1.0,79,0.00,,,0.00,Wunderground v.1.15,2013-03-03 13:00:00,
2013-03-03 08:10:00,29.7,24.0,30.09,WNW,295,1.0,1.0,79,0.00,,,0.00,Wunderground v.1.15,2013-03-03 13:10:00,
2013-03-03 08:15:00,29.8,24.1,30.09,West,274,1.0,1.0,79,0.00,,,0.00,Wunderground v.1.15,2013-03-03 13:15:00,
2013-03-03 08:20:00,29.8,24.1,30.10,WNW,291,1.0,1.0,79,0.00,,,0.00,Wunderground v.1.15,2013-03-03 13:20:00,
2013-03-03 08:30:00,30.0,23.7,30.10,NNE,21,2.0,2.0,77,0.00,,,0.00,Wunderground v.1.15,2013-03-03 13:30:00,
2013-03-03 08:35:00,30.0,23.7,30.10,South,190,2.0,2.0,77,0.00,,,0.00,Wunderground v.1.15,2013-03-03 13:35:00,
2013-03-03 08:40:00,30.1,23.8,30.10,ENE,74,2.0,3.0,77,0.00,,,0.00,Wunderground v.1.15,2013-03-03 13:40:00,
2013-03-03 08:50:00,30.4,23.7,30.10,NNE,23,1.0,1.0,76,0.00,,,0.00,Wunderground v.1.15,2013-03-03 13:50:00,
2013-03-03 08:55:00,30.5,23.8,30.10,West,279,1.0,5.0,76,0.00,,,0.00,Wunderground v.1.15,2013-03-03 13:55:00,
2013-03-03 09:00:00,30.6,23.9,30.10,NE,54,2.0,2.0,76,0.00,,,0.00,Wunderground v.1.15,2013-03-03 14:00:00,
2013-03-03 09:10:00,30.8,24.1,30.10,NNE,13,2.0,2.0,76,0.00,,,0.00,Wunderground v.1.15,2013-03-03 14:10:00,
2013-03-03 09:15:00,31.0,24.3,30.10,SW,228,1.0,2.0,76,0.00,,,0.00,Wunderground v.1.15,2013-03-03 14:15:00,
2013-03-03 09:20:00,31.1,24.4,30.10,NNE,29,2.0,5.0,76,0.00,,,0.00,Wunderground v.1.15,2013-03-03 14:20:00,
2013-03-03 09:25:00,31.1,24.4,30.10,NNE,30,2.0,5.0,76,0.00,,,0.00,Wunderground v.1.15,2013-03-03 14:25:00,
2013-03-03 09:30:00,31.2,24.5,30.10,WNW,283,2.0,2.0,76,0.00,,,0.00,Wunderground v.1.15,2013-03-03 14:30:00,
2013-03-03 09:35:00,31.2,24.8,30.10,WNW,283,2.0,2.0,77,0.00,,,0.00,Wunderground v.1.15,2013-03-03 14:35:00,
2013-03-03 09:40:00,31.3,24.9,30.10,North,4,1.0,1.0,77,0.00,,,0.00,Wunderground v.1.15,2013-03-03 14:40:00,
2013-03-03 09:45:00,31.2,24.5,30.10,NW,308,2.0,2.0,76,0.00,,,0.00,Wunderground v.1.15,2013-03-03 14:45:00,
2013-03-03 09:50:00,31.2,24.5,30.10,WSW,248,2.0,2.0,76,0.00,,,0.00,Wunderground v.1.15,2013-03-03 14:50:00,
2013-03-03 09:55:00,31.1,24.7,30.10,WNW,302,2.0,2.0,77,0.00,,,0.00,Wunderground v.1.15,2013-03-03 14:55:00,
2013-03-03 10:00:00,31.1,24.7,30.11,ESE,117,2.0,2.0,77,0.00,,,0.00,Wunderground v.1.15,2013-03-03 15:00:00,
2013-03-03 10:10:00,31.2,25.4,30.10,West,260,2.0,4.0,79,0.00,,,0.00,Wunderground v.1.15,2013-03-03 15:10:00,
2013-03-03 10:15:00,31.4,25.0,30.10,NW,312,2.0,4.0,77,0.00,,,0.00,Wunderground v.1.15,2013-03-03 15:15:00,
2013-03-03 10:20:00,31.8,25.7,30.10,NNW,327,2.0,4.0,78,0.00,,,0.00,Wunderground v.1.15,2013-03-03 15:20:00,
2013-03-03 10:25:00,32.3,24.9,30.10,NE,40,2.0,4.0,74,0.00,,,0.00,Wunderground v.1.15,2013-03-03 15:25:00,
2013-03-03 10:30:00,32.5,24.8,30.10,NE,48,2.0,2.0,73,0.00,,,0.00,Wunderground v.1.15,2013-03-03 15:30:00,
2013-03-03 10:35:00,32.6,24.6,30.10,North,10,2.0,2.0,72,0.00,,,0.00,Wunderground v.1.15,2013-03-03 15:35:00,
2013-03-03 10:40:00,32.5,24.1,30.10,West,268,3.0,3.0,71,0.00,,,0.00,Wunderground v.1.15,2013-03-03 15:40:00,
2013-03-03 10:45:00,32.3,24.6,30.10,NE,40,2.0,4.0,73,0.00,,,0.00,Wunderground v.1.15,2013-03-03 15:45:00,
2013-03-03 10:50:00,32.4,24.7,30.10,West,265,2.0,2.0,73,0.00,,,0.00,Wunderground v.1.15,2013-03-03 15:50:00,
2013-03-03 11:00:00,33.0,25.3,30.10,South,177,1.0,1.0,73,0.00,,,0.00,Wunderground v.1.15,2013-03-03 16:00:00,
2013-03-03 11:10:00,33.2,25.1,30.10,East,92,2.0,5.0,72,0.00,,,0.00,Wunderground v.1.15,2013-03-03 16:10:00,
2013-03-03 11:15:00,33.0,25.6,30.10,NE,50,2.0,5.0,74,0.00,,,0.00,Wunderground v.1.15,2013-03-03 16:15:00,
2013-03-03 11:20:00,32.7,25.0,30.11,ENE,61,3.0,3.0,73,0.00,,,0.00,Wunderground v.1.15,2013-03-03 16:20:00,
2013-03-03 11:25:00,32.5,25.1,30.10,ENE,67,2.0,3.0,74,0.00,,,0.00,Wunderground v.1.15,2013-03-03 16:25:00,
2013-03-03 11:30:00,32.6,25.2,30.11,NNE,22,3.0,3.0,74,0.00,,,0.00,Wunderground v.1.15,2013-03-03 16:30:00,
2013-03-03 11:40:00,33.2,23.8,30.10,WNW,300,3.0,3.0,68,0.00,,,0.00,Wunderground v.1.15,2013-03-03 16:40:00,
2013-03-03 11:50:00,33.7,24.6,30.10,NW,318,2.0,2.0,69,0.00,,,0.00,Wunderground v.1.15,2013-03-03 16:50:00,
2013-03-03 11:55:00,34.2,24.7,30.11,WNW,284,2.0,8.0,68,0.00,,,0.00,Wunderground v.1.15,2013-03-03 16:55:00,
2013-03-03 12:00:00,34.1,23.2,30.10,North,1,2.0,2.0,64,0.00,,,0.00,Wunderground v.1.15,2013-03-03 17:00:00,
2013-03-03 12:10:00,33.7,23.2,30.10,NE,38,3.0,3.0,65,0.00,,,0.00,Wunderground v.1.15,2013-03-03 17:10:00,
2013-03-03 12:15:00,33.6,23.4,30.11,West,264,3.0,4.0,66,0.00,,,0.00,Wunderground v.1.15,2013-03-03 17:15:00,
2013-03-03 12:20:00,33.5,23.4,30.11,NNW,347,3.0,3.0,66,0.00,,,0.00,Wunderground v.1.15,2013-03-03 17:20:00,
2013-03-03 12:25:00,33.8,24.0,30.11,NNE,14,2.0,3.0,67,0.00,,,0.00,Wunderground v.1.15,2013-03-03 17:25:00,
2013-03-03 12:35:00,33.7,23.2,30.11,NW,319,3.0,5.0,65,0.00,,,0.00,Wunderground v.1.15,2013-03-03 17:35:00,
2013-03-03 12:40:00,33.8,23.3,30.10,NE,35,3.0,3.0,65,0.00,,,0.00,Wunderground v.1.15,2013-03-03 17:40:00,
2013-03-03 12:50:00,34.4,23.1,30.10,NNW,333,3.0,4.0,63,0.00,,,0.00,Wunderground v.1.15,2013-03-03 17:50:00,
2013-03-03 12:55:00,34.5,23.6,30.10,NE,51,3.0,5.0,64,0.00,,,0.00,Wunderground v.1.15,2013-03-03 17:55:00,
2013-03-03 13:00:00,34.6,22.1,30.10,WNW,293,3.0,4.0,60,0.00,,,0.00,Wunderground v.1.15,2013-03-03 18:00:00,
2013-03-03 13:10:00,34.6,22.1,30.10,South,187,4.0,4.0,60,0.00,,,0.00,Wunderground v.1.15,2013-03-03 18:10:00,
2013-03-03 13:15:00,34.3,23.0,30.10,West,266,4.0,10.0,63,0.00,,,0.00,Wunderground v.1.15,2013-03-03 18:15:00,
2013-03-03 13:25:00,33.7,24.3,30.10,ESE,113,5.0,5.0,68,0.00,,,0.00,Wunderground v.1.15,2013-03-03 18:25:00,
2013-03-03 13:35:00,33.7,23.2,30.09,NNW,333,5.0,5.0,65,0.00,,,0.00,Wunderground v.1.15,2013-03-03 18:35:00,
2013-03-03 13:40:00,33.8,24.0,30.09,WNW,282,5.0,5.0,67,0.00,,,0.00,Wunderground v.1.15,2013-03-03 18:40:00,
2013-03-03 13:45:00,34.3,24.1,30.09,WNW,291,3.0,5.0,66,0.00,,,0.00,Wunderground v.1.15,2013-03-03 18:45:00,
2013-03-03 13:50:00,34.0,24.2,30.09,ESE,107,2.0,2.0,67,0.00,,,0.00,Wunderground v.1.15,2013-03-03 18:50:00,
2013-03-03 14:00:00,34.3,23.4,30.09,NW,323,1.0,4.0,64,0.00,,,0.00,Wunderground v.1.15,2013-03-03 19:00:00,
2013-03-03 14:10:00,34.4,23.5,30.09,North,5,2.0,2.0,64,0.00,,,0.00,Wunderground v.1.15,2013-03-03 19:10:00,
2013-03-03 14:20:00,34.6,23.3,30.09,NE,50,3.0,3.0,63,0.00,,,0.00,Wunderground v.1.15,2013-03-03 19:20:00,
2013-03-03 14:25:00,35.2,23.5,30.09,WSW,256,3.0,6.0,62,0.00,,,0.00,Wunderground v.1.15,2013-03-03 19:25:00,
2013-03-03 14:35:00,36.8,24.6,30.08,NNE,17,3.0,5.0,61,0.00,,,0.00,Wunderground v.1.15,2013-03-03 19:35:00,
2013-03-03 14:40:00,37.0,24.8,30.08,NNE,21,4.0,7.0,61,0.00,,,0.00,Wunderground v.1.15,2013-03-03 19:40:00,
2013-03-03 14:45:00,36.4,23.8,30.08,NE,54,4.0,7.0,60,0.00,,,0.00,Wunderground v.1.15,2013-03-03 19:45:00,
2013-03-03 14:55:00,37.1,22.8,30.08,WNW,288,4.0,5.0,56,0.00,,,0.00,Wunderground v.1.15,2013-03-03 19:55:00,
2013-03-03 15:00:00,37.3,22.6,30.08,SW,231,4.0,4.0,55,0.00,,,0.00,Wunderground v.1.15,2013-03-03 20:00:00,
2013-03-03 15:10:00,38.4,23.2,30.08,WSW,250,3.0,7.0,54,0.00,,,0.00,Wunderground v.1.15,2013-03-03 20:10:00,
2013-03-03 15:15:00,38.3,22.6,30.08,NNW,342,3.0,7.0,53,0.00,,,0.00,Wunderground v.1.15,2013-03-03 20:15:00,
2013-03-03 15:20:00,38.1,22.5,30.07,SSW,192,2.0,4.0,53,0.00,,,0.00,Wunderground v.1.15,2013-03-03 20:20:00,
2013-03-03 15:25:00,38.5,21.9,30.07,SW,233,3.0,4.0,51,0.00,,,0.00,Wunderground v.1.15,2013-03-03 20:25:00,
2013-03-03 15:35:00,37.6,20.6,30.08,ENE,73,3.0,3.0,50,0.00,,,0.00,Wunderground v.1.15,2013-03-03 20:35:00,
2013-03-03 15:40:00,38.0,21.0,30.07,SE,127,4.0,4.0,50,0.00,,,0.00,Wunderground v.1.15,2013-03-03 20:40:00,
2013-03-03 15:45:00,38.5,21.0,30.07,NNE,21,4.0,5.0,49,0.00,,,0.00,Wunderground v.1.15,2013-03-03 20:45:00,
2013-03-03 15:50:00,39.4,23.2,30.07,NW,316,3.0,3.0,52,0.00,,,0.00,Wunderground v.1.15,2013-03-03 20:50:00,
2013-03-03 15:55:00,39.7,21.6,30.08,WSW,252,4.0,7.0,48,0.00,,,0.00,Wunderground v.1.15,2013-03-03 20:55:00,
2013-03-03 16:00:00,39.0,21.4,30.08,ENE,73,5.0,5.0,49,0.00,,,0.00,Wunderground v.1.15,2013-03-03 21:00:00,
2013-03-03 16:10:00,38.7,22.1,30.08,NW,312,4.0,4.0,51,0.00,,,0.00,Wunderground v.1.15,2013-03-03 21:10:00,
2013-03-03 16:15:00,38.9,21.3,30.08,North,352,4.0,4.0,49,0.00,,,0.00,Wunderground v.1.15,2013-03-03 21:15:00,
2013-03-03 16:20:00,38.5,21.5,30.08,NW,326,4.0,4.0,50,0.00,,,0.00,Wunderground v.1.15,2013-03-03 21:20:00,
2013-03-03 16:25:00,38.0,21.5,30.07,NNE,12,4.0,5.0,51,0.00,,,0.00,Wunderground v.1.15,2013-03-03 21:25:00,
2013-03-03 16:35:00,38.0,21.0,30.08,NW,323,3.0,4.0,50,0.00,,,0.00,Wunderground v.1.15,2013-03-03 21:35:00,
2013-03-03 16:40:00,38.1,21.5,30.08,NNE,28,2.0,2.0,51,0.00,,,0.00,Wunderground v.1.15,2013-03-03 21:40:00,
2013-03-03 16:50:00,38.4,20.9,30.08,North,358,4.0,4.0,49,0.00,,,0.00,Wunderground v.1.15,2013-03-03 21:50:00,
2013-03-03 16:55:00,38.4,21.4,30.08,North,4,3.0,5.0,50,0.00,,,0.00,Wunderground v.1.15,2013-03-03 21:55:00,
2013-03-03 17:00:00,38.4,20.9,30.08,WSW,256,3.0,7.0,49,0.00,,,0.00,Wunderground v.1.15,2013-03-03 22:00:00,
2013-03-03 17:10:00,38.3,21.3,30.08,SW,233,2.0,2.0,50,0.00,,,0.00,Wunderground v.1.15,2013-03-03 22:10:00,
2013-03-03 17:15:00,38.2,20.7,30.08,WSW,239,2.0,4.0,49,0.00,,,0.00,Wunderground v.1.15,2013-03-03 22:15:00,
2013-03-03 17:25:00,38.2,20.7,30.08,WSW,252,2.0,5.0,49,0.00,,,0.00,Wunderground v.1.15,2013-03-03 22:25:00,
2013-03-03 17:30:00,38.0,21.0,30.08,NNW,327,2.0,4.0,50,0.00,,,0.00,Wunderground v.1.15,2013-03-03 22:30:00,
2013-03-03 17:35:00,37.9,20.4,30.08,West,261,2.0,4.0,49,0.00,,,0.00,Wunderground v.1.15,2013-03-03 22:35:00,
2013-03-03 17:40:00,37.9,20.9,30.08,WSW,251,3.0,3.0,50,0.00,,,0.00,Wunderground v.1.15,2013-03-03 22:40:00,
2013-03-03 17:45:00,37.8,21.3,30.08,West,260,3.0,6.0,51,0.00,,,0.00,Wunderground v.1.15,2013-03-03 22:45:00,
2013-03-03 17:50:00,37.7,20.7,30.08,NW,305,2.0,4.0,50,0.00,,,0.00,Wunderground v.1.15,2013-03-03 22:50:00,
2013-03-03 18:00:00,37.5,21.0,30.08,NE,39,1.0,1.0,51,0.00,,,0.00,Wunderground v.1.15,2013-03-03 23:00:00,
2013-03-03 18:10:00,37.3,21.3,30.08,NNE,23,1.0,1.0,52,0.00,,,0.00,Wunderground v.1.15,2013-03-03 23:10:00,
2013-03-03 18:15:00,37.2,21.2,30.08,West,280,1.0,1.0,52,0.00,,,0.00,Wunderground v.1.15,2013-03-03 23:15:00,
2013-03-03 18:20:00,37.1,21.1,30.08,NNW,331,1.0,1.0,52,0.00,,,0.00,Wunderground v.1.15,2013-03-03 23:20:00,
2013-03-03 18:25:00,36.9,21.3,30.08,North,4,1.0,1.0,53,0.00,,,0.00,Wunderground v.1.15,2013-03-03 23:25:00,
2013-03-03 18:35:00,36.7,21.6,30.08,WSW,248,0.0,1.0,54,0.00,,,0.00,Wunderground v.1.15,2013-03-03 23:35:00,
2013-03-03 18:40:00,36.5,22.7,30.08,WSW,248,0.0,0.0,57,0.00,,,0.00,Wunderground v.1.15,2013-03-03 23:40:00,
2013-03-03 18:45:00,36.3,23.3,30.08,WSW,248,0.0,0.0,59,0.00,,,0.00,Wunderground v.1.15,2013-03-03 23:45:00,
2013-03-03 18:50:00,36.0,23.4,30.09,WSW,248,0.0,0.0,60,0.00,,,0.00,Wunderground v.1.15,2013-03-03 23:50:00,
2013-03-03 19:00:00,35.2,23.9,30.08,WSW,248,0.0,0.0,63,0.00,,,0.00,Wunderground v.1.15,2013-03-04 00:00:00,
2013-03-03 19:10:00,34.3,24.1,30.09,WSW,248,0.0,0.0,66,0.00,,,0.00,Wunderground v.1.15,2013-03-04 00:10:00,
2013-03-03 19:15:00,34.0,23.8,30.09,WSW,248,0.0,0.0,66,0.00,,,0.00,Wunderground v.1.15,2013-03-04 00:15:00,
2013-03-03 19:20:00,33.5,23.7,30.09,WSW,248,0.0,0.0,67,0.00,,,0.00,Wunderground v.1.15,2013-03-04 00:20:00,
2013-03-03 19:25:00,33.0,23.6,30.09,WSW,248,0.0,0.0,68,0.00,,,0.00,Wunderground v.1.15,2013-03-04 00:25:00,
2013-03-03 19:35:00,32.1,23.4,30.09,WSW,248,0.0,0.0,70,0.00,,,0.00,Wunderground v.1.15,2013-03-04 00:35:00,
2013-03-03 19:45:00,31.2,23.2,30.09,WSW,248,0.0,0.0,72,0.00,,,0.00,Wunderground v.1.15,2013-03-04 00:45:00,
2013-03-03 19:50:00,30.8,22.8,30.10,WSW,248,0.0,0.0,72,0.00,,,0.00,Wunderground v.1.15,2013-03-04 00:50:00,
2013-03-03 19:55:00,30.5,22.9,30.10,WSW,248,0.0,0.0,73,0.00,,,0.00,Wunderground v.1.15,2013-03-04 00:55:00,
2013-03-03 20:00:00,30.1,22.8,30.10,WSW,248,0.0,0.0,74,0.00,,,0.00,Wunderground v.1.15,2013-03-04 01:00:00,
2013-03-03 20:10:00,29.4,22.5,30.09,WSW,248,0.0,0.0,75,0.00,,,0.00,Wunderground v.1.15,2013-03-04 01:10:00,
2013-03-03 20:15:00,29.2,22.6,30.09,WSW,248,0.0,0.0,76,0.00,,,0.00,Wunderground v.1.15,2013-03-04 01:15:00,
2013-03-03 20:20:00,28.9,22.3,30.09,WSW,248,0.0,0.0,76,0.00,,,0.00,Wunderground v.1.15,2013-03-04 01:20:00,
2013-03-03 20:30:00,28.5,22.2,30.09,WSW,248,0.0,0.0,77,0.00,,,0.00,Wunderground v.1.15,2013-03-04 01:30:00,
2013-03-03 20:35:00,28.3,21.7,30.09,WSW,248,0.0,0.0,76,0.00,,,0.00,Wunderground v.1.15,2013-03-04 01:35:00,
2013-03-03 20:40:00,28.1,21.8,30.10,WSW,248,0.0,0.0,77,0.00,,,0.00,Wunderground v.1.15,2013-03-04 01:40:00,
2013-03-03 20:45:00,27.9,21.9,30.10,WSW,248,0.0,0.0,78,0.00,,,0.00,Wunderground v.1.15,2013-03-04 01:45:00,
2013-03-03 20:50:00,27.6,21.6,30.10,WSW,248,0.0,0.0,78,0.00,,,0.00,Wunderground v.1.15,2013-03-04 01:50:00,
2013-03-03 20:55:00,27.5,21.8,30.10,WSW,248,0.0,0.0,79,0.00,,,0.00,Wunderground v.1.15,2013-03-04 01:55:00,
2013-03-03 21:00:00,27.3,21.6,30.10,WSW,248,0.0,0.0,79,0.00,,,0.00,Wunderground v.1.15,2013-03-04 02:00:00,
2013-03-03 21:10:00,26.9,21.3,30.10,WSW,248,0.0,0.0,79,0.00,,,0.00,Wunderground v.1.15,2013-03-04 02:10:00,
2013-03-03 21:15:00,26.8,21.5,30.10,WSW,248,0.0,0.0,80,0.00,,,0.00,Wunderground v.1.15,2013-03-04 02:15:00,
2013-03-03 21:20:00,26.6,21.3,30.10,WSW,248,0.0,0.0,80,0.00,,,0.00,Wunderground v.1.15,2013-03-04 02:20:00,
2013-03-03 21:25:00,26.5,21.2,30.11,WSW,248,0.0,0.0,80,0.00,,,0.00,Wunderground v.1.15,2013-03-04 02:25:00,
2013-03-03 21:30:00,26.3,21.0,30.11,WSW,248,0.0,0.0,80,0.00,,,0.00,Wunderground v.1.15,2013-03-04 02:30:00,
2013-03-03 21:35:00,26.1,20.8,30.11,WSW,248,0.0,0.0,80,0.00,,,0.00,Wunderground v.1.15,2013-03-04 02:35:00,
2013-03-03 21:40:00,26.0,21.0,30.10,WSW,248,0.0,0.0,81,0.00,,,0.00,Wunderground v.1.15,2013-03-04 02:40:00,
2013-03-03 21:45:00,25.8,21.1,30.10,WSW,248,0.0,0.0,82,0.00,,,0.00,Wunderground v.1.15,2013-03-04 02:45:00,
2013-03-03 21:55:00,25.5,21.1,30.10,WSW,248,0.0,0.0,83,0.00,,,0.00,Wunderground v.1.15,2013-03-04 02:55:00,
2013-03-03 22:00:00,25.4,21.0,30.10,WSW,248,0.0,0.0,83,0.00,,,0.00,Wunderground v.1.15,2013-03-04 03:00:00,
2013-03-03 22:10:00,25.2,20.8,30.10,WSW,248,0.0,0.0,83,0.00,,,0.00,Wunderground v.1.15,2013-03-04 03:10:00,
2013-03-03 22:15:00,25.1,20.7,30.10,WSW,248,0.0,0.0,83,0.00,,,0.00,Wunderground v.1.15,2013-03-04 03:15:00,
2013-03-03 22:20:00,25.0,20.8,30.10,WSW,248,0.0,0.0,84,0.00,,,0.00,Wunderground v.1.15,2013-03-04 03:20:00,
2013-03-03 22:25:00,24.9,20.8,30.11,WSW,248,0.0,0.0,84,0.00,,,0.00,Wunderground v.1.15,2013-03-04 03:25:00,
2013-03-03 22:35:00,24.8,20.4,30.11,WSW,248,0.0,0.0,83,0.00,,,0.00,Wunderground v.1.15,2013-03-04 03:35:00,
2013-03-03 22:40:00,24.6,20.5,30.11,WSW,248,0.0,0.0,84,0.00,,,0.00,Wunderground v.1.15,2013-03-04 03:40:00,
2013-03-03 22:50:00,24.3,20.7,30.11,WSW,248,0.0,0.0,86,0.00,,,0.00,Wunderground v.1.15,2013-03-04 03:50:00,
2013-03-03 22:55:00,24.3,20.7,30.10,WSW,248,0.0,0.0,86,0.00,,,0.00,Wunderground v.1.15,2013-03-04 03:55:00,
2013-03-03 23:00:00,24.2,20.6,30.11,WSW,248,0.0,0.0,86,0.00,,,0.00,Wunderground v.1.15,2013-03-04 04:00:00,
2013-03-03 23:10:00,24.0,20.4,30.11,WSW,248,0.0,0.0,86,0.00,,,0.00,Wunderground v.1.15,2013-03-04 04:10:00,
2013-03-03 23:15:00,24.0,20.4,30.10,WSW,248,0.0,0.0,86,0.00,,,0.00,Wunderground v.1.15,2013-03-04 04:15:00,
2013-03-03 23:20:00,23.8,20.2,30.11,WSW,248,0.0,0.0,86,0.00,,,0.00,Wunderground v.1.15,2013-03-04 04:20:00,
2013-03-03 23:25:00,23.7,20.4,30.11,WSW,248,0.0,0.0,87,0.00,,,0.00,Wunderground v.1.15,2013-03-04 04:25:00,
2013-03-03 23:35:00,23.6,20.0,30.11,WSW,248,0.0,0.0,86,0.00,,,0.00,Wunderground v.1.15,2013-03-04 04:35:00,
2013-03-03 23:40:00,23.5,19.9,30.11,WSW,248,0.0,0.0,86,0.00,,,0.00,Wunderground v.1.15,2013-03-04 04:40:00,
2013-03-03 23:45:00,23.5,19.9,30.11,WSW,248,0.0,0.0,86,0.00,,,0.00,Wunderground v.1.15,2013-03-04 04:45:00,
2013-03-03 23:50:00,23.4,19.8,30.12,WSW,248,0.0,0.0,86,0.00,,,0.00,Wunderground v.1.15,2013-03-04 04:50:00,
2013-03-03 23:55:00,23.3,19.7,30.11,WSW,248,0.0,0.0,86,0.00,,,0.00,Wunderground v.1.15,2013-03-04 04:55:00,